Regional Weather Roundup
Issued by NWS Boston, MA

Current Version | Previous Version | Text Only | Print | Product List | Glossary On
Versions: 1 2 3 4 5 6 7 8 9 10 11 12 13 14 15 16 17 18 19 20 21 22 23 24 25 26 27
000
ASUS41 KBOX 242210
RWRBOX

REGIONAL WEATHER ROUNDUP
NATIONAL WEATHER SERVICE TAUNTON MA
600 PM EDT THU APR 24 2014

NOTE:  "FAIR" INDICATES FEW OR NO CLOUDS BELOW 12,000 FEET WITH NO
SIGNIFICANT WEATHER AND/OR OBSTRUCTIONS TO VISIBILITY.  THE FOLLOWING
OBSERVATION LOCATIONS DO NOT REPORT PRESENT WEATHER...PROVINCETOWN...
SMITHFIELD...BLOCK ISLAND...KEENE...AND OXFORD.

MAZALL-242300-
EASTERN MASSACHUSETTS

CITY           SKY/WX    TMP DP  RH WIND       PRES   REMARKS
BOSTON         MOSUNNY   56  23  27 NW26G37   29.75R
BEVERLY        SUNNY     54  24  31 NW29G40   29.75R
LAWRENCE       SUNNY     54  23  30 N20G33    29.78R
BEDFORD        SUNNY     54  24  31 NW24G36   29.76R
BLUE HILL        N/A     53  23  31 NW26G41   29.72R
NORWOOD        SUNNY     56  23  27 N17G31    29.75R
MARSHFIELD       N/A    N/A N/A N/A MISG        N/A
PLYMOUTH       SUNNY     56  25  30 N22G30    29.73R
TAUNTON        SUNNY     60  23  24 N10G25    29.73R
NEW BEDFORD    SUNNY     58  22  24 N13G28    29.72R
$$

MAZALL-242300-
CAPE COD AND THE ISLANDS

CITY           SKY/WX    TMP DP  RH WIND       PRES   REMARKS
FALMOUTH       SUNNY     57  25  28 NW20G28   29.71R
HYANNIS        SUNNY     54  31  41 N16G25    29.69R
CHATHAM        SUNNY     53  32  44 VRB7G20   29.71R
PROVINCETOWN   SUNNY     50  34  53 MISG      29.73R
NANTUCKET      SUNNY     54  30  40 NW18G26   29.71R
MARTHAS VNYRD  SUNNY     59  25  27 NW17G24   29.71R
$$

MAZALL-242300-
CENTRAL AND WESTERN MASSACHUSETTS

CITY           SKY/WX    TMP DP  RH WIND       PRES   REMARKS
WORCESTER      SUNNY     52  20  28 NW15G36   29.77R
FITCHBURG      SUNNY     57  22  25 NW16G26   29.79R
ORANGE         SUNNY     55  17  22 N28G36    29.81R
SPRINGFIELD    SUNNY     58  22  24 NW18G26   29.80R
WESTFIELD      SUNNY     58  18  21 N22G30    29.82R
NORTH ADAMS    SUNNY     53  17  24 NW8G23    29.86R
PITTSFIELD     SUNNY     52  14  22 NW12G26   29.84R
$$

RIZALL-242300-
RHODE ISLAND

CITY           SKY/WX    TMP DP  RH WIND       PRES   REMARKS
PROVIDENCE     MOSUNNY   58  19  22 NW21G30   29.75R
NEWPORT        SUNNY     57  22  25 NW17G30   29.74R
BLOCK ISLAND   SUNNY     55  25  30 NW16G25   29.76S
SMITHFIELD     SUNNY     55  21  26 NW20G33   29.77R
WESTERLY       SUNNY     59  19  21 NW15G31   29.78R
$$

CTZALL-242300-
CONNECTICUT

CITY           SKY/WX    TMP DP  RH WIND       PRES   REMARKS
BRADLEY INTL   SUNNY     58  15  18 NW20G31   29.81R
HARTFORD       SUNNY     58  14  17 N21G32    29.82R
BRIDGEPORT     SUNNY     60  10  14 NW21G36   29.85R
DANBURY        SUNNY     57  12  17 NW13G26   29.88R
GROTON         SUNNY     59  19  21 NW15G30   29.77R
NEW HAVEN      SUNNY     59  13  16 NW15G30   29.84R
CHESTER        FAIR      57  14  18 N16G26    29.81R
MERIDEN        SUNNY     58  14  17 NW24G33   29.83R
WILLIMANTIC    SUNNY     58  19  22 NW16G28   29.79R
OXFORD         SUNNY     55  16  21 MISG      29.86R
$$

MEZ002-015-021-024-NHZ003-005-008-011-012-014-VTZ005-008-242300-
NORTHERN NEW ENGLAND

CITY           SKY/WX    TMP DP  RH WIND       PRES   REMARKS
PORTLAND ME    CLOUDY    50  27  40 N22G38    29.74R
BANGOR ME      LGT RAIN  43  34  70 N22G31    29.70R
CONCORD NH     MOSUNNY   52  23  32 NW20G37   29.79R
MANCHESTER NH  MOSUNNY   54  22  28 NW24G41   29.76R
NASHUA NH      SUNNY     55  23  29 N23G33    29.78R
PORTSMOUTH NH  MOSUNNY   52  25  34 NW25G39   29.74R
JAFFREY NH     SUNNY     51  20  29 VRB6G22   29.80R
KEENE NH       SUNNY     54  21  28 NW15G24   29.83R
BURLINGTON VT  MOSUNNY   53  24  32 NW24G31   29.93R
MT. WASHINGTON FOG       19  19 100 N63G89      N/A  VSB 0   WCI  -6
$$

NYZ052-076-242300-
EASTERN NEW YORK

CITY           SKY/WX    TMP DP  RH WIND       PRES   REMARKS
ALBANY         SUNNY     58  12  16 NW18G28   29.90R
NEW YORK CITY  MOSUNNY   60  11  14 NW17G29   29.88R
$$

ANZALL-242300-
MARINE OBSERVATIONS

STATION/POSITION TIME  TEMP    WIND        PRES    VSBY  WAVE
                       AIR SEA DIR/SP/G                  HT/PER
                 (UTC) (F)     (DEG/KT/KT) (MB)    (MI)  (FT/S)
BOSTON BUOY      2150   49 41  330/ 21/ 25 1006.5R         5/ 5
BUZZARDS BAY     2100          330/ 32/ 36 1006.6R
NANTUCKET SOUND  2150   52 46  350/ 19/ 23 1005.5R         3/ 4
MASS BAY-STELLWA 2104   49 42  320/ 21/ 25 1003.8R  1 7/8  4/ 4
ISLE OF SHOALS   2200   49     310/ 30/ 33 1005.8R
S OF BLOCK IS    2125      42                N/A           5/ 6
$$

......................KEY.........................
  SKY/WX - SKY CONDITION/PRESENT WEATHER
  TMP    - TEMPERATURE IN FAHRENHEIT
  DWPT   - DEWPOINT IN FAHRENHEIT
  RH     - RELATIVE HUMIDITY IN PERCENT
  WIND   - DIRECTION AND SPEED IN MPH
  PRES   - MEAN SEA LEVEL PRESSURE IN INCHES OF HG
  WCI    - WIND CHILL INDEX
  VSB    - VISIBILITY IN MILES
  HX     - HEAT INDEX
  TC     - TEMPERATURE IN CELSIUS
  VRB    - VARIABLE WIND DIRECTION
  N/A    - NOT AVAILABLE



USA.gov is the U.S. government's official web portal to all federal, state and local government web resources and services.